TimeAKDT,TemperatureF,Dew PointF,Humidity,Sea Level PressureIn,VisibilityMPH,Wind Direction,Wind SpeedMPH,Gust SpeedMPH,PrecipitationIn,Events,Conditions,WindDirDegrees,DateUTC
12:53 AM,60.1,57.0,90,30.25,10.0,West,3.5,-,N/A,,Scattered Clouds,270,2013-07-27 08:53:00
1:53 AM,57.9,55.9,93,30.26,10.0,Calm,Calm,-,N/A,,Scattered Clouds,0,2013-07-27 09:53:00
2:53 AM,59.0,55.0,87,30.27,10.0,West,4.6,-,N/A,,Scattered Clouds,280,2013-07-27 10:53:00
3:53 AM,55.9,53.1,90,30.27,10.0,Calm,Calm,-,N/A,,Scattered Clouds,0,2013-07-27 11:53:00
4:53 AM,53.1,51.1,93,30.27,10.0,Calm,Calm,-,N/A,,Scattered Clouds,0,2013-07-27 12:53:00
5:53 AM,53.1,50.0,89,30.29,10.0,Calm,Calm,-,N/A,,Scattered Clouds,0,2013-07-27 13:53:00
6:53 AM,53.1,51.1,93,30.30,10.0,Calm,Calm,-,N/A,,Scattered Clouds,0,2013-07-27 14:53:00
7:53 AM,55.0,52.0,89,30.30,10.0,Calm,Calm,-,N/A,,Scattered Clouds,0,2013-07-27 15:53:00
8:53 AM,62.1,55.0,78,30.30,10.0,Calm,Calm,-,N/A,,Clear,0,2013-07-27 16:53:00
9:53 AM,64.9,55.0,70,30.30,10.0,Calm,Calm,-,N/A,,Scattered Clouds,0,2013-07-27 17:53:00
10:53 AM,71.1,57.9,63,30.30,10.0,Calm,Calm,-,N/A,,Scattered Clouds,0,2013-07-27 18:53:00
11:53 AM,75.0,57.0,53,30.30,10.0,Calm,Calm,-,N/A,,Scattered Clouds,0,2013-07-27 19:53:00
12:53 PM,78.1,57.9,50,30.29,10.0,Calm,Calm,-,N/A,,Scattered Clouds,0,2013-07-27 20:53:00
1:53 PM,81.0,57.9,45,30.29,10.0,Variable,3.5,-,N/A,,Scattered Clouds,0,2013-07-27 21:53:00
2:53 PM,81.0,55.9,42,30.27,10.0,SSW,3.5,-,N/A,,Scattered Clouds,200,2013-07-27 22:53:00
3:53 PM,82.0,55.0,39,30.26,10.0,Calm,Calm,-,N/A,,Scattered Clouds,0,2013-07-27 23:53:00
4:53 PM,82.9,54.0,37,30.25,10.0,SSE,3.5,-,N/A,,Scattered Clouds,150,2013-07-28 00:53:00
5:53 PM,84.0,53.1,34,30.23,10.0,Calm,Calm,-,N/A,,Clear,0,2013-07-28 01:53:00
6:53 PM,82.9,57.0,41,30.22,10.0,Calm,Calm,-,N/A,,Clear,0,2013-07-28 02:53:00
7:53 PM,82.0,55.0,39,30.22,10.0,Calm,Calm,-,N/A,,Clear,0,2013-07-28 03:53:00
8:53 PM,81.0,53.1,38,30.21,10.0,Calm,Calm,-,N/A,,Clear,0,2013-07-28 04:53:00
9:53 PM,73.9,64.9,73,30.21,10.0,Calm,Calm,-,N/A,,Clear,0,2013-07-28 05:53:00
10:53 PM,68.0,63.0,84,30.21,10.0,Calm,Calm,-,N/A,,Clear,0,2013-07-28 06:53:00
11:53 PM,64.0,60.1,87,30.22,10.0,Calm,Calm,-,N/A,,Clear,0,2013-07-28 07:53:00